Location: Unspecified
(0.0000°N, 0.0000°E)
Time: 23:36:25
(UTC+00:00)

Vanguard 1 - Pass Details

Date: 16 February 2018
Orbit: 650 x 3833 km, 34.3° (Epoch: 26 May)

Event Time Altitude Azimuth Distance (km) Brightness Sun altitude
Exits shadow 01:03:28 13° 132° (SE) 4,482 13.5 -72.6°
Drops below altitude 10° 01:04:48 10° 131° (SE) 4,909 13.8 -72.3°
Sets 01:09:50 0° 129° (SE) 6,439 14.5 -71.4°
